#timestamp,LO_Frequency,Hit 
1503010815.3,286046996.6,N
1503010835.1,286046996.5,N
1503010855.9,286046998.7,N
1503010875.7,286047002.3,N
1503010895.5,286046998.6,N
1503010915.4,286046998.6,N
1503010935.2,286047002.8,N
1503010955.0,286047003.2,N
1503010955.9,286047003.2,N
1503010975.8,286047003.6,N
1503010995.6,286047003.2,N
1503011015.4,286047002.0,N
1503011035.3,286047002.6,N
1503011055.1,286047004.1,N
1503011056.0,286047004.1,N
1503011075.8,286047003.3,N
1503011095.7,286047003.0,N
1503011115.5,286047003.3,N
1503011135.3,286047006.0,N
1503011155.2,286047001.4,N
1503011175.9,286047003.5,N
1503011195.7,286047005.9,N
1503011215.6,286047007.3,N
1503011235.4,286047007.2,N
1503011255.2,286047008.0,N
1503011275.0,286047006.1,N
1503011275.9,286047006.1,N
1503011295.8,286047006.9,N
1503011315.6,286047006.3,N
1503011335.4,286047005.0,N
1503011355.3,286047005.1,N
1503011375.1,286047006.5,N
1503011395.9,286047007.9,P
1503011415.7,286047003.3,N
1503011435.5,286047000.1,N
1503011455.3,286047000.7,N
1503011475.2,286046999.8,N
1503011495.0,286047002.4,N
1503011495.9,286047002.4,N
1503011515.7,286047004.4,N
1503011535.6,286047001.6,N
1503011555.4,286047003.2,N
1503011575.2,286047004.6,N
1503011595.1,286047005.4,N
1503011596.0,286047005.4,N
1503011615.8,286047001.4,N
1503011635.6,286047001.3,N
1503011655.5,286047003.5,N
1503011675.3,286047003.0,N
1503011695.1,286047004.0,N
1503011715.9,286047006.0,P
1503011735.7,286047000.5,N
1503011755.5,286047001.1,N
1503011775.4,286046998.8,N
1503011795.2,286046998.9,N
1503011815.0,286046999.2,N
1503011815.9,286046999.2,N
1503011835.8,286046997.0,N
1503011855.6,286046999.0,N
1503011875.4,286046999.0,N
1503011895.3,286046999.5,N
1503011915.1,286046999.3,N
1503011916.0,286046999.3,N
1503011935.8,286046997.3,N
1503011955.7,286046996.6,N
1503011975.5,286046997.7,N
1503011995.3,286046996.1,N
1503012015.1,286046997.8,N
1503012035.9,286046997.5,N
1503012055.7,286046997.6,N
1503012075.5,286046997.2,N
1503012095.4,286046997.5,N
1503012115.2,286046998.4,N
1503012135.0,286047002.5,N
1503012135.9,286047002.5,N
1503012155.8,286047001.4,N
1503012175.6,286047000.3,N
1503012195.4,286047000.0,N
1503012215.3,286047007.4,P
1503012235.1,286047004.6,N
1503012236.0,286047004.6,N
1503012255.8,286047003.3,N
1503012275.7,286047006.0,N
1503012295.5,286047005.9,N
1503012315.3,286047006.0,N
1503012335.2,286047004.6,N
1503012355.9,286047004.6,N
1503012375.7,286047006.5,P
1503012395.6,286047003.2,P
1503012415.4,286047003.1,N
1503012435.2,286047003.4,N
1503012455.1,286047003.9,N
1503012456.0,286047003.9,P
1503012475.8,286046999.4,P
1503012495.6,286046998.5,N
1503012515.5,286046998.9,N
1503012535.3,286047000.3,N
1503012555.1,286047002.5,N
1503012575.9,286047000.4,N
1503012595.7,286047001.1,N
1503012615.5,286046998.5,N
1503012635.4,286047000.0,N
1503012655.2,286046998.6,N
1503012675.1,286046998.3,N
1503012676.0,286046998.3,N
1503012695.8,286047001.2,N
1503012715.6,286046998.8,N
1503012735.5,286046998.4,N
1503012755.3,286047000.7,N
1503012775.1,286046998.6,N
1503012795.9,286047001.0,N
1503012815.7,286046998.4,N
1503012835.5,286046997.4,N
1503012855.4,286046995.5,N
1503012875.2,286046994.9,N
1503012895.0,286046997.5,N
1503012895.9,286046997.5,N
1503012915.8,286046997.6,N
1503012935.6,286046995.6,N
1503012955.4,286046995.1,N
1503012975.2,286046996.7,N
1503012995.1,286046999.4,N
1503012996.0,286046999.4,N
1503013015.8,286046999.4,N
1503013035.6,286046997.1,N
1503013055.5,286047001.0,N
1503013075.3,286046999.6,N
1503013095.1,286046998.0,N
1503013115.9,286046999.1,N
1503013135.7,286046995.2,N
1503013155.5,286046997.5,N
1503013175.4,286046994.4,P
1503013195.2,286046994.1,P
1503013215.0,286046991.8,P
1503013216.0,286046991.8,P
1503013235.8,286047001.1,N
1503013255.6,286047004.2,N
1503013275.5,286047003.6,N
1503013295.3,286047003.2,N
1503013315.1,286046999.9,N
1503013335.9,286047001.6,N
1503013355.7,286047004.4,N
1503013375.5,286047005.7,N
1503013395.3,286047005.5,N
1503013415.2,286047003.6,N
1503013435.0,286047004.3,N
1503013435.9,286047004.3,N
1503013455.7,286047002.2,N
1503013475.6,286047001.8,N
1503013495.4,286047001.4,N
1503013515.2,286047004.4,N
1503013535.1,286047002.7,N
1503013536.0,286047002.7,N
1503013555.8,286047002.1,N
1503013575.6,286047003.8,N
1503013595.5,286047004.2,N
1503013615.3,286047003.3,N
1503013635.1,286047005.7,N
1503013655.9,286047003.4,N
1503013675.7,286047003.0,N
1503013695.5,286047003.7,N
1503013715.4,286047004.6,N
1503013735.2,286047006.6,N
1503013755.0,286047003.3,N
1503013755.9,286047003.3,N
1503013775.8,286047002.0,N
1503013795.6,286047003.6,N
1503013815.4,286047004.4,P
1503013835.3,286047000.5,N
1503013855.1,286046999.1,N
1503013856.0,286046999.1,N
1503013875.8,286047002.5,N
1503013895.7,286047000.0,N
1503013915.5,286046998.6,N
1503013935.3,286047000.0,N
1503013955.2,286046998.4,N
1503013975.9,286047000.3,N
1503013995.7,286046998.1,N
1503014015.6,286046998.7,N
1503014035.4,286046999.6,N
1503014055.2,286047000.9,N
1503014075.0,286046998.5,N
1503014075.9,286046998.5,N
1503014095.8,286047000.0,N
1503014115.6,286047000.2,N
1503014135.4,286047004.2,N
1503014155.3,286047004.0,N
1503014175.1,286047002.1,N
1503014195.8,286047004.1,N
1503014215.7,286047002.6,N
1503014235.5,286047001.5,N
1503014255.3,286047004.0,N
1503014275.2,286047001.3,N
1503014295.9,286047000.2,N
1503014315.7,286046998.2,N
1503014335.6,286047000.4,N
1503014355.4,286046999.9,N
1503014375.2,286047000.2,N
1503014395.1,286047002.5,N
1503014396.0,286047002.5,N
